Probability
3 3 3 3 0 0 0 0 0 0 0 0 0 0 0 0 0 0 0 0 0 0 0 0 0 0 0 0 0 0 0 0 0 0 0 0 0 0 0 0 0 0 0
3 3 3 3 0 0 0 0 0 0 0 0 0 0 0 0 0 0 0 0 0 0 0 0 0 0 0 0 0 0 0 0 0 0 0 0 0 0 0 0 0 0 0
3 3 3 3 3 0 0 0 0 0 0 0 0 0 0 0 0 0 0 0 0 0 0 0 0 0 0 0 0 0 0 0 0 0 0 0 0 0 0 0 0 0 0
0 3 3 3 3 0 0 0 0 0 0 0 0 0 0 0 0 0 0 0 0 0 0 0 0 0 0 0 0 0 0 0 0 0 0 0 0 0 0 0 0 0 0
0 3 3 3 3 0 0 0 0 0 0 0 0 0 0 0 0 0 0 0 0 0 0 0 0 0 0 0 0 0 0 0 0 0 0 0 0 0 0 0 0 0 0
0 0 3 3 3 0 0 0 0 0 0 0 0 0 0 0 0 0 0 0 0 0 0 0 0 0 0 0 0 0 0 0 0 0 0 0 0 0 0 0 0 0 0
0 0 0 3 3 0 0 0 0 0 0 0 0 0 0 0 0 0 0 0 0 0 0 0 0 0 0 0 0 0 0 0 0 0 0 0 0 0 0 0 0 0 0
0 0 0 3 3 0 0 0 0 0 0 0 0 0 0 0 0 0 0 0 0 0 0 0 0 0 0 0 0 0 0 0 0 0 0 0 0 0 0 0 0 0 0
0 0 3 3 3 0 0 0 0 0 0 0 0 0 0 0 0 0 0 0 0 0 0 0 0 0 0 0 0 0 0 0 0 0 0 0 0 0 0 0 0 0 0
0 0 0 3 3 3 0 0 0 0 0 0 0 0 0 0 0 0 0 0 0 0 0 0 0 0 0 0 0 0 0 0 0 0 0 0 0 0 0 0 0 0 0
0 0 0 0 0 0 0 0 0 0 0 0 0 0 0 0 0 0 0 0 0 0 0 0 0 0 0 0 0 0 0 0 0 0 0 0 0 0 0 0 0 0 0
0 0 0 0 0 0 0 0 0 0 0 0 0 0 0 0 0 0 0 0 0 0 0 0 0 0 0 0 0 0 0 0 0 0 0 0 0 0 0 0 0 0 0
0 0 0 0 0 0 0 0 0 0 0 0 0 0 0 0 0 0 0 0 0 0 0 0 0 0 0 0 0 0 0 0 0 0 0 0 0 0 0 0 0 0 0
0 0 0 0 0 0 0 0 0 0 0 0 0 0 0 0 0 0 0 0 0 0 0 0 0 0 0 0 0 0 0 0 0 0 0 0 0 0 0 0 0 0 0
0 0 0 0 0 0 0 0 0 0 0 0 0 0 0 0 0 0 0 0 0 0 0 0 0 0 0 0 0 0 0 0 0 0 0 0 0 0 0 0 0 0 0
0 0 0 0 0 0 0 0 0 0 0 0 0 0 0 0 0 0 0 0 0 0 0 0 0 0 0 0 0 0 0 0 0 0 0 0 0 0 0 0 0 0 0
0 0 0 0 0 0 0 0 0 0 0 0 0 0 0 0 0 0 0 0 0 0 0 0 0 0 0 0 0 0 0 0 0 0 0 0 0 0 0 0 0 0 0
0 0 0 0 0 0 0 0 0 0 0 0 0 0 0 0 0 0 0 0 0 0 0 0 0 0 0 0 0 0 0 0 0 0 0 0 0 0 0 0 0 0 0
0 0 0 0 0 0 0 0 0 0 0 0 0 0 0 0 0 0 0 0 0 0 0 0 0 0 0 0 0 0 0 0 0 0 0 0 0 0 0 0 0 0 0
0 0 0 0 0 0 0 0 0 0 0 0 0 0 0 0 0 0 0 0 0 0 0 0 0 0 0 0 0 0 0 0 0 0 0 0 0 0 0 0 0 0 0
0 0 0 0 0 0 0 0 0 0 0 0 0 0 0 0 0 0 0 0 0 0 0 0 0 0 0 0 0 0 0 0 0 0 0 0 0 0 0 0 0 0 0
0 0 0 0 0 0 0 0 0 0 0 0 0 0 0 0 0 0 0 0 0 0 0 0 0 0 0 0 0 0 0 0 0 0 0 0 0 0 0 0 0 0 0
0 0 0 0 0 0 0 0 0 0 0 0 0 0 0 0 0 0 0 0 0 0 0 0 0 0 0 0 0 0 0 0 0 0 0 0 0 0 0 0 0 0 0
0 0 0 0 0 0 0 0 0 0 0 0 0 0 0 0 0 0 0 0 0 0 0 0 0 0 0 0 0 0 0 0 0 0 0 0 0 0 0 0 0 0 0
0 0 0 0 0 0 0 0 0 0 0 0 0 0 0 0 0 0 0 0 0 0 0 0 0 0 0 0 0 0 0 0 0 0 0 0 0 0 0 0 0 0 0
0 0 0 0 0 0 0 0 0 0 0 0 0 0 0 0 0 0 0 0 0 0 0 0 0 0 0 0 0 0 0 0 0 0 0 0 0 0 0 0 0 0 0
Height
5844 5844 5843 5843 5843 5843 5842 5841 5840 5839 5838 5836 5834 5832 5830 5827 5824 5821 5817 5814 5810 5807 5803 5800 5797 5795 5792 5791 5789 5788 5788 5788 5789 5790 5792 5794 5796 5798 5801 5804 5808 5812 5815
5842 5842 5842 5841 5841 5841 5840 5839 5838 5837 5836 5834 5832 5830 5828 5826 5823 5819 5816 5812 5808 5805 5801 5798 5795 5793 5790 5789 5787 5786 5785 5785 5786 5787 5788 5790 5793 5795 5798 5800 5804 5808 5812
5840 5840 5840 5840 5839 5839 5838 5837 5837 5836 5834 5832 5831 5829 5826 5824 5821 5818 5815 5811 5807 5803 5800 5797 5794 5791 5789 5787 5785 5783 5783 5783 5783 5784 5786 5788 5790 5792 5795 5797 5800 5804 5808
5838 5838 5838 5838 5837 5837 5836 5836 5835 5834 5832 5830 5829 5827 5825 5823 5820 5817 5813 5810 5806 5802 5799 5795 5793 5790 5788 5786 5784 5782 5781 5781 5781 5782 5783 5785 5787 5789 5792 5794 5797 5800 5804
5836 5836 5836 5835 5835 5835 5834 5834 5833 5832 5830 5829 5827 5825 5823 5821 5818 5815 5812 5809 5805 5801 5797 5794 5791 5789 5787 5785 5783 5781 5780 5779 5779 5780 5781 5783 5784 5787 5789 5791 5794 5797 5801
5835 5834 5834 5834 5833 5833 5832 5832 5831 5830 5828 5827 5825 5824 5822 5819 5817 5814 5811 5808 5804 5800 5796 5793 5791 5788 5786 5784 5782 5780 5779 5778 5778 5778 5779 5781 5782 5784 5786 5788 5791 5794 5797
5833 5833 5832 5832 5831 5831 5830 5829 5829 5827 5826 5825 5824 5822 5820 5818 5815 5813 5810 5806 5803 5799 5796 5793 5790 5787 5785 5783 5781 5779 5778 5777 5777 5777 5778 5779 5780 5782 5784 5786 5788 5791 5794
5832 5831 5830 5830 5829 5829 5828 5827 5826 5825 5824 5823 5822 5820 5818 5816 5813 5811 5808 5805 5802 5798 5795 5792 5789 5787 5785 5782 5781 5779 5778 5777 5776 5776 5776 5777 5778 5780 5781 5783 5785 5787 5790
5830 5829 5828 5827 5827 5826 5825 5824 5823 5822 5821 5820 5819 5818 5816 5814 5812 5809 5807 5804 5801 5798 5795 5792 5789 5787 5784 5782 5780 5779 5777 5776 5775 5775 5775 5776 5777 5778 5779 5780 5782 5785 5787
5828 5827 5826 5825 5824 5823 5822 5822 5821 5820 5819 5818 5817 5815 5814 5812 5810 5807 5805 5802 5800 5797 5794 5791 5789 5786 5784 5782 5780 5778 5777 5775 5775 5774 5774 5774 5775 5776 5777 5778 5779 5781 5784
5825 5824 5823 5822 5821 5820 5820 5819 5818 5817 5816 5815 5814 5812 5811 5809 5807 5805 5803 5801 5798 5796 5793 5791 5788 5786 5783 5781 5779 5778 5776 5775 5774 5773 5773 5773 5773 5774 5774 5775 5777 5779 5781
5823 5821 5820 5819 5818 5817 5816 5815 5814 5813 5813 5812 5811 5809 5808 5806 5804 5803 5801 5799 5797 5794 5792 5790 5787 5785 5783 5781 5779 5777 5775 5774 5773 5772 5771 5771 5771 5772 5772 5773 5774 5776 5777
5820 5818 5817 5816 5815 5814 5813 5812 5811 5810 5809 5808 5807 5806 5805 5803 5801 5800 5798 5796 5794 5792 5790 5788 5786 5784 5781 5780 5778 5776 5775 5773 5772 5771 5770 5770 5770 5770 5770 5771 5771 5773 5774
5817 5815 5814 5813 5811 5810 5809 5808 5806 5805 5804 5803 5802 5801 5800 5799 5798 5796 5795 5793 5791 5789 5788 5786 5784 5782 5780 5778 5776 5775 5773 5772 5771 5770 5769 5768 5768 5768 5768 5768 5768 5769 5770
5813 5811 5810 5809 5807 5806 5804 5803 5802 5801 5800 5798 5797 5796 5795 5794 5793 5792 5790 5789 5788 5786 5784 5783 5781 5779 5777 5776 5774 5773 5772 5770 5769 5768 5767 5766 5766 5765 5765 5765 5765 5766 5766
5808 5807 5805 5804 5802 5801 5800 5798 5797 5795 5794 5793 5792 5791 5790 5789 5788 5787 5785 5784 5783 5782 5781 5779 5778 5776 5775 5773 5772 5771 5770 5768 5767 5766 5765 5764 5763 5763 5762 5762 5762 5763 5763
5803 5802 5800 5799 5797 5796 5794 5793 5791 5790 5788 5787 5786 5784 5783 5783 5782 5781 5780 5779 5778 5777 5776 5775 5773 5772 5771 5770 5769 5768 5767 5766 5765 5764 5763 5762 5761 5760 5760 5760 5759 5759 5759
5797 5795 5794 5792 5790 5789 5787 5786 5784 5783 5781 5780 5779 5778 5776 5776 5775 5774 5773 5772 5771 5771 5770 5769 5768 5767 5766 5765 5765 5764 5763 5762 5761 5760 5760 5759 5758 5757 5757 5756 5756 5756 5755
5790 5788 5787 5785 5783 5781 5780 5778 5776 5775 5773 5772 5770 5769 5768 5767 5767 5766 5765 5765 5764 5764 5763 5763 5762 5762 5761 5760 5760 5759 5758 5758 5757 5756 5756 5755 5754 5754 5753 5753 5752 5752 5751
5782 5780 5778 5776 5775 5773 5771 5769 5767 5765 5764 5762 5761 5760 5759 5758 5758 5757 5756 5756 5756 5756 5755 5755 5755 5755 5755 5754 5754 5754 5753 5753 5752 5752 5751 5751 5750 5750 5749 5749 5748 5748 5747
5774 5771 5769 5767 5764 5762 5761 5759 5757 5755 5753 5752 5750 5749 5748 5748 5747 5747 5746 5746 5746 5746 5747 5747 5747 5747 5747 5747 5747 5747 5747 5747 5747 5746 5746 5746 5745 5745 5744 5744 5743 5743 5743
5764 5761 5758 5756 5753 5751 5749 5747 5744 5743 5741 5740 5739 5738 5737 5736 5736 5735 5735 5735 5736 5736 5737 5737 5738 5739 5739 5739 5740 5740 5740 5740 5740 5740 5740 5740 5740 5740 5739 5739 5738 5738 5738
5752 5749 5746 5743 5740 5738 5735 5733 5731 5729 5728 5726 5725 5724 5723 5723 5723 5723 5723 5724 5724 5725 5726 5727 5728 5729 5730 5730 5731 5732 5732 5733 5733 5734 5734 5734 5734 5734 5733 5733 5733 5733 5732
5739 5736 5732 5729 5727 5724 5721 5718 5716 5715 5713 5712 5711 5710 5709 5709 5709 5709 5710 5711 5712 5713 5714 5716 5717 5719 5720 5721 5722 5723 5724 5725 5725 5726 5726 5727 5727 5727 5727 5727 5727 5727 5726
5725 5721 5717 5714 5711 5708 5705 5702 5700 5698 5697 5696 5694 5694 5694 5694 5694 5695 5696 5697 5699 5700 5702 5704 5705 5707 5709 5710 5712 5713 5714 5715 5717 5717 5718 5719 5719 5720 5720 5720 5720 5720 5720
5710 5706 5702 5699 5696 5693 5689 5686 5683 5681 5679 5678 5678 5677 5677 5677 5678 5680 5681 5682 5684 5686 5688 5690 5693 5695 5697 5699 5701 5702 5704 5705 5707 5709 5710 5710 5711 5712 5712 5713 5713 5713 5713
Wind_Speed
9 9 8 8 8 8 7 7 8 9 10 11 11 12 13 14 15 16 16 17 16 16 15 15 14 13 12 11 10 10 10 10 10 12 14 16 17 18 20 21 23 24 25
8 8 8 8 8 8 7 8 8 9 10 10 11 12 13 14 15 16 16 17 16 16 15 15 13 12 11 10 10 10 9 10 10 11 12 13 15 17 18 20 22 24 25
8 8 7 7 8 8 8 8 8 9 9 10 11 12 12 13 14 15 16 17 17 16 15 14 13 11 10 10 9 8 8 8 9 9 11 12 13 15 16 18 20 22 24
8 7 7 8 8 8 8 8 8 9 9 10 11 11 12 13 14 15 16 17 17 16 15 14 13 11 10 10 9 8 7 7 7 9 10 11 12 13 14 16 18 20 22
8 7 8 8 8 8 8 8 9 9 9 10 11 11 12 13 14 15 16 17 17 17 15 14 13 12 10 9 8 8 6 6 6 7 9 10 11 12 13 15 17 19 21
7 7 7 8 8 8 8 9 9 10 9 10 11 11 12 13 13 14 15 17 17 17 15 14 13 12 10 9 8 7 6 4 5 6 7 9 10 11 12 14 16 18 20
8 7 8 8 9 9 9 9 10 10 10 10 11 11 12 12 13 14 15 16 17 16 15 14 12 11 10 9 8 7 5 4 4 4 6 8 9 10 11 13 16 17 19
8 8 8 9 9 9 10 10 10 10 11 11 11 11 12 12 13 14 14 15 16 15 15 14 12 11 10 9 8 7 5 4 4 4 5 7 8 9 10 12 15 17 18
8 9 9 9 10 10 10 11 11 11 12 12 12 12 12 12 13 13 14 14 15 15 14 14 12 11 9 9 8 7 6 5 4 4 5 6 8 8 10 12 14 15 17
9 9 10 10 10 11 11 12 12 13 13 13 13 13 13 12 13 13 13 14 14 14 14 13 12 11 10 9 8 7 6 5 4 4 4 6 7 8 9 10 12 14 16
9 10 10 11 11 12 12 13 13 14 14 14 14 14 14 13 13 13 14 14 14 13 13 13 12 11 10 9 9 8 7 6 5 4 5 6 7 8 9 10 11 13 15
11 11 12 12 13 13 14 14 14 15 15 15 15 15 15 15 14 14 14 14 13 13 13 12 12 11 10 9 9 8 7 6 5 5 5 6 6 7 9 10 11 12 15
13 13 14 14 14 15 15 16 16 16 16 17 17 17 17 16 16 15 15 15 14 13 13 13 12 11 10 9 9 8 7 6 6 5 5 6 6 7 9 10 11 12 14
15 16 16 16 16 17 17 18 18 18 18 18 18 18 18 18 18 17 17 16 15 14 14 13 13 12 11 9 9 8 8 7 6 6 6 6 6 7 8 10 10 11 13
17 17 18 18 18 19 19 20 20 20 20 20 20 20 20 20 20 19 19 18 17 16 15 14 13 12 11 10 10 9 8 7 7 7 7 7 7 7 8 9 10 11 12
19 19 20 20 21 21 21 22 22 22 22 22 22 23 23 22 22 22 21 20 19 18 17 16 15 14 13 11 11 10 9 9 9 8 8 8 8 8 8 9 9 10 11
21 22 22 23 23 23 24 24 24 24 25 25 25 25 25 25 25 24 24 23 22 21 20 19 17 16 15 14 13 12 11 10 10 10 9 9 9 8 9 9 10 11 11
23 24 25 25 26 26 26 26 27 27 27 27 27 27 27 27 27 27 26 26 24 23 22 21 20 18 17 16 15 14 13 13 12 11 11 10 10 9 9 10 11 11 12
26 27 27 28 28 29 29 29 30 30 30 30 30 30 30 30 30 29 28 28 27 26 25 24 23 21 20 18 17 16 15 15 14 13 12 12 12 11 11 11 11 12 12
31 31 31 31 31 32 32 32 32 33 33 33 33 33 32 32 32 32 31 30 30 29 28 26 25 24 23 21 20 19 18 17 16 15 14 14 13 13 12 12 12 12 13
34 34 35 36 36 36 36 36 36 36 36 36 36 35 35 35 34 34 34 33 32 31 31 29 28 27 26 25 23 22 20 19 18 17 16 15 15 14 14 14 14 14 14
39 39 39 40 40 40 40 40 40 40 39 39 39 39 38 38 37 36 36 35 35 34 33 32 30 29 28 27 26 25 23 22 20 20 18 17 17 16 16 16 15 15 15
43 43 43 43 44 44 44 43 43 43 42 42 42 42 41 40 39 38 37 37 37 36 35 34 33 31 30 30 29 28 26 25 23 22 21 20 19 19 18 17 17 16 16
47 48 48 47 47 47 46 46 46 45 45 45 44 44 43 42 41 40 40 39 38 38 37 36 35 34 33 32 31 30 29 28 26 25 24 23 22 21 20 20 19 18 18
50 50 51 50 49 49 48 48 48 48 47 46 46 45 45 45 44 42 41 41 40 40 39 38 37 36 35 34 33 32 31 30 29 27 26 25 24 23 22 22 21 20 20
51 51 51 52 51 50 49 49 49 49 48 47 47 47 47 47 47 46 44 44 43 42 42 40 39 38 37 36 35 34 34 32 31 30 29 27 26 25 25 24 23 23 22
Wind_Direction
268 262 259 262 267 276 289 298 309 317 322 326 330 333 336 338 339 339 340 339 337 335 333 330 325 322 316 309 302 293 281 268 259 247 238 233 231 227 225 224 221 219 217
271 265 261 261 265 275 287 297 308 315 320 326 329 332 335 338 340 342 343 343 341 338 337 335 330 328 323 315 307 297 286 271 257 245 237 232 229 225 225 225 221 220 218
271 267 264 265 268 274 284 294 304 311 317 325 330 332 335 337 339 343 345 346 345 342 341 339 336 333 331 325 317 307 292 273 255 243 235 230 226 226 223 221 219 218 217
272 269 266 269 271 274 284 293 301 308 315 324 329 331 333 335 338 342 345 346 347 344 343 341 339 338 336 333 326 320 303 277 255 242 232 227 226 223 222 221 220 219 217
273 269 270 271 272 275 283 292 299 306 314 320 326 329 331 333 336 339 342 344 346 345 343 342 341 340 339 337 333 325 314 287 261 245 234 227 225 222 223 222 221 219 218
280 277 276 273 274 277 282 288 296 303 310 315 320 325 328 331 334 337 340 343 345 346 345 343 343 342 342 338 337 334 323 299 267 246 231 229 225 224 225 224 222 220 219
286 282 279 276 275 278 282 287 295 302 306 310 315 320 324 329 331 334 337 341 344 346 348 346 344 344 344 345 342 338 327 309 281 254 233 229 224 226 229 228 224 221 219
293 286 282 279 277 280 283 288 293 299 302 306 310 315 320 325 328 332 334 338 343 345 347 347 345 343 345 346 347 343 332 312 292 266 240 232 225 226 229 231 227 223 219
297 290 285 284 285 285 287 289 291 294 297 300 305 309 314 319 323 328 331 335 340 343 345 346 344 345 344 343 341 342 333 312 298 277 256 239 229 232 233 231 227 223 221
300 295 290 289 289 289 290 293 293 291 293 295 299 303 308 312 317 322 326 331 334 338 340 342 343 341 341 340 338 338 332 320 302 281 264 246 239 240 237 233 224 221 222
301 297 293 291 289 288 289 290 293 291 290 291 294 298 301 305 309 313 319 324 327 331 335 336 337 338 338 336 333 332 330 319 303 285 269 258 251 245 242 234 229 227 227
302 297 294 293 291 288 287 286 288 288 287 288 291 294 296 298 301 305 309 315 318 320 325 329 331 331 332 332 331 329 327 323 314 298 282 268 260 254 246 241 238 236 233
300 298 295 295 294 292 289 287 286 286 284 284 286 289 292 293 295 297 300 305 310 313 314 317 321 322 323 325 323 324 321 319 317 308 293 277 270 265 258 253 249 245 241
297 297 296 293 292 292 291 288 286 284 283 282 283 285 287 288 290 292 293 296 300 303 307 309 311 311 310 312 314 316 315 310 309 305 296 284 275 269 264 260 255 252 247
296 295 294 293 291 290 290 289 287 285 283 282 281 282 283 284 286 287 288 289 291 293 295 300 303 302 300 301 303 306 306 303 304 304 299 291 285 276 269 264 262 257 253
299 296 294 294 292 290 289 288 287 285 284 283 281 280 280 281 282 283 284 284 284 286 287 289 293 294 293 293 293 295 297 298 296 296 297 295 292 285 276 271 270 266 261
298 298 295 293 291 290 289 288 286 285 283 282 281 279 279 279 279 279 280 280 280 280 281 282 284 285 285 285 285 287 289 290 289 287 287 289 289 287 280 273 273 271 269
297 297 295 294 292 291 290 288 287 285 283 282 281 279 278 277 276 276 276 277 276 276 276 276 277 278 278 278 279 278 280 281 282 282 281 282 283 281 279 276 274 273 272
298 297 296 294 292 291 290 288 286 285 283 282 280 279 277 276 275 274 273 273 273 273 273 272 272 272 272 273 273 273 274 275 275 276 276 276 278 278 278 277 275 275 272
299 298 296 294 292 290 288 287 286 284 283 281 280 278 277 276 275 273 272 271 271 270 269 269 269 268 268 268 269 269 270 271 271 271 271 272 273 274 274 275 275 275 273
297 296 295 293 292 290 289 287 285 283 282 280 279 278 276 275 274 272 270 268 268 267 267 266 266 266 265 265 265 265 266 266 267 268 268 268 269 271 272 273 273 273 273
295 295 294 292 291 290 289 287 284 283 281 280 278 277 275 274 272 270 268 267 265 264 264 264 264 264 263 263 263 262 262 263 264 265 265 264 266 268 270 271 271 271 272
295 294 294 292 291 290 289 287 284 283 281 280 278 276 274 272 270 268 266 265 263 262 262 262 262 262 261 260 260 260 260 260 261 262 262 262 264 265 267 269 270 269 270
295 294 294 292 291 290 289 287 285 283 281 279 277 275 272 270 269 267 265 263 262 260 260 260 260 260 259 259 258 258 258 258 258 259 260 261 262 263 265 266 268 268 269
295 295 294 293 292 291 289 287 286 284 280 278 276 274 272 269 267 265 263 261 260 259 258 257 257 258 258 258 257 257 257 257 257 258 259 260 261 262 263 264 265 266 268
296 295 294 294 293 292 290 288 286 283 280 277 275 273 270 268 266 263 261 260 259 258 257 255 254 255 256 256 256 256 256 255 256 257 257 258 260 261 261 262 262 264 267